Weather in Plitvicka Jezera

Croatia     44°52′56″N   15°37′23″E
temp.,
°C
wind,
m/s
gust,
m/s
humid.,
%
clouds,
%
prec.,
mm/h
press.,
hPa
HPBL,
m
8 march, mon
mon801:00−2sw226947 0.0 102039
04:00−2sw22670 0.0 101841
07:00−1sw22650 0.0 101831
10:00+8nne11430 0.0 1019541
13:00+8ne33480 0.0 1018883
16:00+7ne33500 0.0 1017919
19:00+1ne12740 0.0 101831
22:000n11810 0.0 101922
9 march, tue
tue901:00−1nnw129338 0.0 101977
04:00−1n2394100 0.0 1018159
07:00−2n2491100 0.0 1018215
10:00+1nne2474100 0.0 1018579
13:00+3ne3666100 0.0 1017966
16:00+4ne4664100 0.0 10151073
19:00+2ne3878100 0.0 1016565
22:00+1ne3991100 0.3 1017573
10 march, wed
wed1001:00−1ne3897100 1.3 1016457
04:00−1nne3996100 1.5 1016448
07:00−3nne269399 1.6 1018328
10:00+2ne486446 0.0 1019748
13:00+5ne585424 0.0 10191295
16:00+5ene48550 0.0 10191195
19:000ne24750 0.0 1021103
22:00−1n11770 0.0 102321
11 march, thu
thu1101:00−2w11850 0.0 102421
04:00−2ssw11850 0.0 102321
07:00−1ssw11780 0.0 102423
10:00+8s12470 0.0 1023640
13:00+10w234230 0.0 10221304
16:00+7wsw3653100 0.0 1020545
19:00+3ssw2271100 0.0 102043
22:00+2ssw2470100 0.0 102195
12 march, fri
fri1201:00+2ssw3772100 0.0 1020208
04:00+3ssw41182100 0.0 1018465
07:00+4ssw3988100 0.0 1019418
10:00+7s4976100 0.0 1020712
13:00+5s41184100 0.1 1019522
16:00+4s41190100 1.5 1017575
19:00+4s2694100 3.4 1017352
22:00+4ssw2793100 1.9 1016393